Location: WHS+Essen
(51.3947°N, 6.9794°E)
Time: 12:56:51
(UTC+02:00)

ISS - Pass Details

Date: 27 May 2019
Orbit: 408 x 418 km, 51.6° (Epoch: 16 June)

Event Time Altitude Azimuth Distance (km) Brightness Sun altitude
Rises 00:09:11 0° 284° (WNW) 2,361 0.5 -15.3°
Maximum altitude 00:14:35 50° 202° (SSW) 537 -3.6 -15.6°
Enters shadow 00:15:26 38° 155° (SSE) 650 -3.3 -15.6°
